Tracking 31027 objects as of 19-Jul-2025
HD Live streaming from Space Station
objects crossing your sky now

ERS 2 DEB

Track ERS 2 DEB now!
10-day predictions


NORAD ID: 35393
Int'l Code: 1995-021G
Perigee: 718.6 km
Apogee: 722.8 km
Inclination: 98.5 °
Period: 99.1 minutes
Semi major axis: 7091 km
RCS: 0.0072 m2 (small)
Launch date: April 21, 1995
Source: European Space Agency (ESA)
Launch site: FRENCH GUIANA (FRGUI)

Note: This is SATELLITE DEBRIS
Your satellite tracking list
ATLAS 2A CENTAUR R/B
Track 1 satellite(s)




NASA's NSSDC Master Catalog

Two Line Element Set (TLE):
1 35393U 95021G   25199.89016522  .00002064  00000-0  50366-3 0  9994
2 35393  98.4734 169.3055 0003003 228.4776 159.2128 14.53708967153749
Source of the keplerian elements: AFSPC